Skip Page Navigation
NASA JPL Caltech
NASA Logo - Jet Propulsion Laboratory + View the NASA Portal
+ Center for Near-Earth Object Studies
JPL Home Earth Solar System Stars & Galaxies Technology
JPL Solar System Dynamics
BODIES ORBITS EPHEMERIDES TOOLS PHYSICAL DATA DISCOVERY FAQ SITE MAP
IMPORTANT: The SSD Announcement email list is now available. Major changes are coming in the near future, including possible hostname and/or URL changes. To be notified of such changes, subscribe to this email list.

Please visit this page for more details.


JPL Small-Body Database Browser
Search: [ help ]  
305782 (2009 DS51)
Classification: Main-belt Asteroid          SPK-ID: 2305782
Ephemeris | Orbit Diagram | Orbital Elements | Mission Design | Physical Parameters | Discovery Circumstances | Close-Approach Data ]

[ show orbit diagram ]
Orbital Elements at Epoch 2458600.5 (2019-Apr-27.0) TDB
Reference: JPL 15 (heliocentric ecliptic J2000)
 Element Value Uncertainty (1-sigma)   Units 
e .1405342686931952 5.5418e-08  
a 2.451924760084983 2.012e-08 au
q 2.107345307035702 1.3931e-07 au
i 2.557956606787636 5.9212e-06 deg
node 170.4695754822875 0.00010943 deg
peri 358.0781699009528 0.00011114 deg
M 212.608826880578 1.9433e-05 deg
tp 2459174.653624159514
(2020-Nov-21.15362416)
7.9164e-05 TDB
period 1402.358773072202
3.84
1.7261e-05
4.726e-08
d
yr
n .2567103418273871 3.1597e-09 deg/d
Q 2.796504213134265 2.2947e-08 au
  Orbit Determination Parameters
   # obs. used (total)      193  
   data-arc span      5908 days (16.18 yr)  
   first obs. used      2003-10-01  
   last obs. used      2019-12-04  
   planetary ephem.      DE431  
   SB-pert. ephem.      SB431-N16  
   condition code      0  
   norm. resid. RMS      .57493  
   source      ORB  
   producer      Otto Matic  
   solution date      2019-Dec-14 18:49:21  

Additional Information
 Earth MOID = 1.11423 au 
 Jupiter MOID = 2.17398 au 
 T_jup = 3.480 
[ show covariance matrix ]

Ephemeris | Orbit Diagram | Orbital Elements | Mission Design | Physical Parameters | Discovery Circumstances | Close-Approach Data ]

Physical Parameter Table
Parameter Symbol Value Units Sigma Reference Notes
absolute magnitude H 17.3   n/a MPO455253  

305782 (2009 DS51)          Discovered 2009-Feb-22 by Spacewatch at Kitt Peak
Reference: 20111110/Numbers.arcLast Updated: 2011-11-14

[ hide close-approach data ]
Close-Approach Data   ...sorted by Date/Time (TDB)
Date/Time (TDB) Time Uncertainty
(days_HH:MM)
Body Nominal Distance (au) Minimum Distance (au) Maximum Distance (au) V-relative (km/s) V-infinity (km/s) JD (TDB) Time Uncertainty (minutes) Semi-major axis (km) Semi-minor axis (km) range-LOV angle (deg) N-sigma BP Orbit Ref. Reference Modified
1987-Jun-01 10:50 00:02 Iris 0.00366885070720757 0.003665035465802 0.00367270407729235 6.73876149596134 6.73876126343995 2446947.951303586 1.70951897830037 798.45240440553 124.091463121862 -79.3766703586877 4347.3752865626 T 15 CATAB v2.0f-lin.ifort 2019-Dec-14 18:49:27 2019-Dec-14 18:49
2079-Aug-02 23:53 00:03 Iris 0.0109675966745246 0.0109466633415667 0.0109886297443091 6.72019067563206 6.72019059763469 2480613.495135944 3.1711113687294 1962.07196428655 120.124309401054 -57.950494253874 11582.3485638203 T 15 CATAB v2.0f-lin.ifort 2019-Dec-14 18:49:27 2019-Dec-14 18:49
Ephemeris | Orbit Diagram | Orbital Elements | Mission Design | Physical Parameters | Discovery Circumstances | Close-Approach Data ]
ABOUT SSD CREDITS/AWARDS PRIVACY/COPYRIGHT GLOSSARY LINKS
FirstGov 2019-Dec-16 08:23 UT
(server date/time)  
NASA Home Page
Site Manager:   Ryan S. Park
Webmaster  Alan B. Chamberlin